Hourly Weather Maun

Today, 25 October, Sunday

Time Temperature Precipitation Wind Pressure Humidity
00:00 +28°C° 0 mm 2 mps 680 mmHg 25%
01:00 +28°C° 0 mm 2 mps 680 mmHg 26%
02:00 +27°C° 0 mm 3 mps 679 mmHg 27%
03:00 +26°C° 0 mm 3 mps 679 mmHg 29%
04:00 +25°C° 0 mm 2 mps 679 mmHg 31%
05:00 +24°C° 0 mm 2 mps 679 mmHg 33%
06:00 +26°C° 0 mm 3 mps 680 mmHg 28%
07:00 +29°C° 0 mm 3 mps 681 mmHg 24%
08:00 +32°C° 0 mm 4 mps 682 mmHg 19%
09:00 +34°C° 0 mm 4 mps 682 mmHg 17%
10:00 +37°C° 0 mm 4 mps 682 mmHg 15%
11:00 +40°C° 0 mm 4 mps 682 mmHg 13%
12:00 +41°C° 0 mm 4 mps 681 mmHg 12%
13:00 +42°C° 0 mm 4 mps 680 mmHg 12%
14:00 +43°C° 0 mm 5 mps 680 mmHg 11%
15:00 +43°C° 0 mm 5 mps 679 mmHg 11%
16:00 +42°C° 0 mm 5 mps 679 mmHg 12%
17:00 +41°C° 0 mm 5 mps 678 mmHg 12%
18:00 +39°C° 0 mm 5 mps 678 mmHg 14%
19:00 +35°C° 0 mm 4 mps 678 mmHg 17%
20:00 +33°C° 0 mm 3 mps 678 mmHg 19%
21:00 +31°C° 0 mm 3 mps 678 mmHg 20%
22:00 +30°C° 0 mm 2 mps 678 mmHg 22%
23:00 +29°C° 0 mm 2 mps 678 mmHg 23%

Tomorrow, 26 October, Monday

Time Temperature Precipitation Wind Pressure Humidity
00:00 +28°C° 0 mm 2 mps 678 mmHg 24%
01:00 +27°C° 0 mm 2 mps 678 mmHg 25%
02:00 +27°C° 0 mm 2 mps 677 mmHg 26%
03:00 +26°C° 0 mm 2 mps 677 mmHg 25%
04:00 +25°C° 0 mm 2 mps 677 mmHg 24%
05:00 +24°C° 0 mm 2 mps 677 mmHg 23%
06:00 +26°C° 0 mm 3 mps 678 mmHg 20%
07:00 +29°C° 0 mm 3 mps 679 mmHg 17%
08:00 +32°C° 0 mm 4 mps 680 mmHg 15%
09:00 +35°C° 0 mm 4 mps 680 mmHg 13%
10:00 +38°C° 0 mm 4 mps 680 mmHg 11%
11:00 +41°C° 0 mm 4 mps 680 mmHg 10%
12:00 +42°C° 0 mm 4 mps 680 mmHg 8%
13:00 +43°C° 0 mm 4 mps 679 mmHg 7%
14:00 +45°C° 0 mm 5 mps 679 mmHg 5%
15:00 +43°C° 0 mm 5 mps 678 mmHg 6%
16:00 +44°C° 0 mm 6 mps 677 mmHg 6%
17:00 +42°C° 0 mm 6 mps 677 mmHg 6%
18:00 +39°C° 0 mm 5 mps 677 mmHg 8%
19:00 +35°C° 0 mm 4 mps 677 mmHg 10%
20:00 +32°C° 0 mm 4 mps 677 mmHg 12%
21:00 +32°C° 0 mm 4 mps 677 mmHg 12%
22:00 +30°C° 0 mm 4 mps 678 mmHg 13%
23:00 +29°C° 0 mm 4 mps 678 mmHg 14%

Day after tomorrow, 27 October, Tuesday

Time Temperature Precipitation Wind Pressure Humidity
00:00 +29°C° 0 mm 4 mps 678 mmHg 16%
01:00 +28°C° 0 mm 4 mps 678 mmHg 18%
02:00 +28°C° 0 mm 4 mps 677 mmHg 20%
03:00 +27°C° 0 mm 4 mps 678 mmHg 21%
04:00 +26°C° 0 mm 4 mps 678 mmHg 23%
05:00 +25°C° 0 mm 4 mps 678 mmHg 25%
06:00 +27°C° 0 mm 4 mps 679 mmHg 22%
07:00 +29°C° 0 mm 5 mps 680 mmHg 20%
08:00 +30°C° 0 mm 5 mps 681 mmHg 18%
09:00 +34°C° 0 mm 5 mps 681 mmHg 16%
10:00 +37°C° 0 mm 5 mps 681 mmHg 15%
11:00 +40°C° 0 mm 4 mps 681 mmHg 13%
12:00 +41°C° 0 mm 4 mps 680 mmHg 12%
13:00 +42°C° 0 mm 3 mps 679 mmHg 10%
14:00 +44°C° 0 mm 3 mps 679 mmHg 9%
15:00 +43°C° 0 mm 3 mps 678 mmHg 9%
16:00 +43°C° 0 mm 3 mps 678 mmHg 9%
17:00 +42°C° 0 mm 3 mps 677 mmHg 9%
18:00 +39°C° 0 mm 3 mps 677 mmHg 11%
19:00 +36°C° 0 mm 3 mps 677 mmHg 14%
20:00 +33°C° 0 mm 3 mps 677 mmHg 16%
21:00 +31°C° 0 mm 3 mps 677 mmHg 18%
22:00 +29°C° 0 mm 3 mps 678 mmHg 20%
23:00 +28°C° 0 mm 2 mps 678 mmHg 21%

28 October, Wednesday

Time Temperature Precipitation Wind Pressure Humidity
00:00 +28°C° 0 mm 3 mps 677 mmHg 20%
01:00 +28°C° 0 mm 3 mps 677 mmHg 19%
02:00 +28°C° 0 mm 4 mps 677 mmHg 18%
03:00 +27°C° 0 mm 4 mps 677 mmHg 18%
04:00 +26°C° 0 mm 3 mps 677 mmHg 19%
05:00 +25°C° 0 mm 3 mps 677 mmHg 19%
06:00 +27°C° 0 mm 3 mps 678 mmHg 19%
07:00 +29°C° 0 mm 4 mps 679 mmHg 18%
08:00 +30°C° 0 mm 4 mps 680 mmHg 18%
09:00 +34°C° 0 mm 4 mps 680 mmHg 17%
10:00 +37°C° 0 mm 4 mps 680 mmHg 17%
11:00 +40°C° 0 mm 4 mps 681 mmHg 16%
12:00 +42°C° 0 mm 4 mps 680 mmHg 14%
13:00 +43°C° 0 mm 3 mps 679 mmHg 12%
14:00 +44°C° 0 mm 3 mps 678 mmHg 10%
15:00 +43°C° 0 mm 3 mps 678 mmHg 11%
16:00 +42°C° 0 mm 3 mps 677 mmHg 12%
17:00 +42°C° 0 mm 4 mps 677 mmHg 12%
18:00 +38°C° 0 mm 3 mps 677 mmHg 14%
19:00 +36°C° 0 mm 3 mps 677 mmHg 17%
20:00 +34°C° 0 mm 2 mps 677 mmHg 19%
21:00 +32°C° 0 mm 2 mps 677 mmHg 21%
22:00 +31°C° 0 mm 2 mps 678 mmHg 22%
23:00 +29°C° 0 mm 2 mps 678 mmHg 24%

29 October, Thursday

Time Temperature Precipitation Wind Pressure Humidity
00:00 +28°C° 0 mm 2 mps 678 mmHg 26%
01:00 +27°C° 0 mm 2 mps 677 mmHg 28%
02:00 +26°C° 0 mm 2 mps 677 mmHg 30%
03:00 +26°C° 0 mm 2 mps 677 mmHg 33%
04:00 +25°C° 0 mm 1 mps 677 mmHg 35%
05:00 +24°C° 0 mm 1 mps 678 mmHg 38%
06:00 +26°C° 0 mm 2 mps 679 mmHg 34%
07:00 +28°C° 0 mm 3 mps 680 mmHg 30%
08:00 +32°C° 0 mm 4 mps 681 mmHg 26%
09:00 +35°C° 0 mm 4 mps 681 mmHg 22%
10:00 +37°C° 0 mm 5 mps 681 mmHg 18%
11:00 +41°C° 0 mm 5 mps 681 mmHg 15%
12:00 +42°C° 0 mm 5 mps 680 mmHg 13%
13:00 +43°C° 0 mm 4 mps 680 mmHg 12%
14:00 +44°C° 0 mm 3 mps 679 mmHg 11%
15:00 +43°C° 0 mm 3 mps 679 mmHg 11%
16:00 +43°C° 0 mm 3 mps 679 mmHg 11%
17:00 +42°C° 0 mm 3 mps 678 mmHg 12%
18:00 +39°C° 0 mm 2 mps 678 mmHg 14%
19:00 +36°C° 0 mm 2 mps 678 mmHg 16%
20:00 +34°C° 0 mm 2 mps 678 mmHg 18%
21:00 +32°C° 0 mm 2 mps 679 mmHg 19%
22:00 +31°C° 0 mm 2 mps 679 mmHg 21%
23:00 +30°C° 0 mm 2 mps 679 mmHg 22%

30 October, Friday

Time Temperature Precipitation Wind Pressure Humidity
00:00 +29°C° 0 mm 2 mps 679 mmHg 23%
01:00 +28°C° 0 mm 2 mps 678 mmHg 25%
02:00 +27°C° 0 mm 2 mps 678 mmHg 26%
03:00 +26°C° 0 mm 1 mps 678 mmHg 27%
04:00 +25°C° 0 mm 1 mps 678 mmHg 29%
05:00 +25°C° 0 mm 1 mps 679 mmHg 30%
06:00 +27°C° 0 mm 1 mps 680 mmHg 27%
07:00 +29°C° 0 mm 2 mps 681 mmHg 24%
08:00 +31°C° 0 mm 2 mps 681 mmHg 22%
09:00 +35°C° 0 mm 3 mps 682 mmHg 19%
10:00 +37°C° 0 mm 3 mps 682 mmHg 16%
11:00 +41°C° 0 mm 4 mps 682 mmHg 14%
12:00 +42°C° 0 mm 4 mps 682 mmHg 13%
13:00 +43°C° 0 mm 3 mps 681 mmHg 11%
14:00 +44°C° 0 mm 3 mps 680 mmHg 10%
15:00 +44°C° 0 mm 4 mps 680 mmHg 11%
16:00 +43°C° 0 mm 4 mps 680 mmHg 11%
17:00 +42°C° 0 mm 4 mps 679 mmHg 12%
18:00 +38°C° 0 mm 3 mps 679 mmHg 15%
19:00 +36°C° 0 mm 3 mps 679 mmHg 18%
20:00 +32°C° 0 mm 2 mps 679 mmHg 21%
21:00 +31°C° 0 mm 2 mps 679 mmHg 22%
22:00 +30°C° 0 mm 2 mps 679 mmHg 23%
23:00 +28°C° 0 mm 2 mps 679 mmHg 25%
Show more